Weather History for Kirksville, MO

Change the Weather History Date:

Friday, May 2, 2014

  Actual Average Record
Temperature  
Mean Temperature 56 °F 57 °F  
Max Temperature 66 °F 68 °F 86 °F (1959)
Min Temperature 45 °F 47 °F 32 °F (1961)
Degree Days  
Heating Degree Days 9 8  
Month to date heating degree days 27 17  
Since 1 July heating degree days 6300 5707  
Cooling Degree Days 0 1  
Month to date cooling degree days 0 1  
Year to date cooling degree days 5 8  
Growing Degree Days 6 (Base 50)    
Moisture  
Dew Point 38 °F    
Average Humidity 57    
Maximum Humidity 83    
Minimum Humidity 31    
Precipitation  
Precipitation T in 0.19 in 1.20 in (1935)
Month to date precipitation 0.01 0.38  
Year to date precipitation 7.61 9.57  
Sea Level Pressure  
Sea Level Pressure 29.88 in    
Wind  
Wind Speed 9 mph (West)    
Max Wind Speed 20 mph    
Max Gust Speed 29 mph    
Visibility 10 miles    
Events      
T = Trace of Precipitation, MM = Missing Value Source: NWS Daily Summary

Daily Weather History Graph

Daily Weather History Graph

Search for Another Location

Airport:

Trip Planner

Search our weather history database for the weather conditions in past years. The results will help you decide how hot, cold, wet, or windy it might be!

Date:

Astronomy

May. 02, 2014 Rise Set
Actual Time 6:08 AM CDT 8:06 PM CDT
Civil Twilight 5:39 AM CDT 8:35 PM CDT
Nautical Twilight 5:03 AM CDT 9:11 PM CDT
Astronomical Twilight 4:24 AM CDT 9:50 PM CDT
Moon 8:46 AM CDT (5/2) 11:28 PM CDT (5/2)
Length of Visible Light 14h 56m
Length of Day
13h 57m
Waxing Crescent, 12% of the Moon is Illuminated
May 2
Waxing Crescent
May 6
First Quarter
May 14
Full
May 21
Last Quarter
May 28
New

Hourly Weather History & Observations

Time (CDT) Temp. Windchill Dew Point Humidity Pressure Visibility Wind Dir Wind Speed Gust Speed Precip Events Conditions
12:55 AM 46.0 °F 41.9 °F 39.9 °F 79% 29.98 in 10.0 mi West 8.1 mph - N/A   Overcast
1:55 AM 46.0 °F 41.4 °F 39.0 °F 76% 29.96 in 10.0 mi West 9.2 mph - N/A   Overcast
2:13 AM 46.0 °F 41.9 °F 39.9 °F 79% 29.93 in 10.0 mi West 8.1 mph - N/A   Overcast
2:46 AM 46.0 °F 42.5 °F 39.0 °F 76% 29.93 in 10.0 mi West 6.9 mph - N/A   Overcast
2:55 AM 45.0 °F 41.2 °F 39.0 °F 80% 29.95 in 10.0 mi West 6.9 mph - N/A   Overcast
3:55 AM 45.0 °F 41.8 °F 39.0 °F 80% 29.94 in 10.0 mi West 5.8 mph - N/A   Overcast
4:55 AM 45.0 °F 41.8 °F 39.0 °F 80% 29.94 in 10.0 mi West 5.8 mph - N/A   Overcast
5:55 AM 45.0 °F 41.8 °F 39.0 °F 80% 29.94 in 10.0 mi WSW 5.8 mph - N/A   Overcast
6:55 AM 46.0 °F 43.1 °F 39.0 °F 76% 29.94 in 10.0 mi West 5.8 mph - N/A   Overcast
7:55 AM 48.0 °F - 39.9 °F 74% 29.94 in 10.0 mi West 6.9 mph - N/A   Overcast
8:55 AM 50.0 °F - 39.9 °F 68% 29.94 in 10.0 mi West 8.1 mph - N/A   Overcast
9:55 AM 53.1 °F - 39.0 °F 59% 29.93 in 10.0 mi WNW 9.2 mph - N/A   Overcast
10:55 AM 55.0 °F - 37.0 °F 51% 29.92 in 10.0 mi West 11.5 mph 19.6 mph N/A   Mostly Cloudy
11:55 AM 57.9 °F - 37.0 °F 46% 29.91 in 10.0 mi West 9.2 mph - N/A   Mostly Cloudy
12:55 PM 60.1 °F - 37.9 °F 44% 29.89 in 10.0 mi SW 15.0 mph 20.7 mph N/A   Mostly Cloudy
1:55 PM 62.1 °F - 37.0 °F 39% 29.87 in 10.0 mi West 16.1 mph 23.0 mph N/A   Scattered Clouds
2:55 PM 64.0 °F - 35.1 °F 34% 29.85 in 10.0 mi WSW 12.7 mph 26.5 mph N/A   Partly Cloudy
3:55 PM 66.0 °F - 36.0 °F 33% 29.82 in 10.0 mi West 13.8 mph 23.0 mph N/A   Clear
4:55 PM 66.0 °F - 36.0 °F 33% 29.80 in 10.0 mi West 13.8 mph 24.2 mph N/A   Scattered Clouds
5:55 PM 64.0 °F - 34.0 °F 33% 29.80 in 10.0 mi SW 12.7 mph 21.9 mph N/A   Clear
6:55 PM 64.4 °F - 33.8 °F 32% 29.77 in 10.0 mi SW 13.8 mph 20.7 mph N/A   Scattered Clouds
7:55 PM 63.0 °F - 35.1 °F 35% 29.77 in 10.0 mi SW 10.4 mph - N/A   Overcast
8:55 PM 62.1 °F - 35.1 °F 37% 29.78 in 10.0 mi WSW 8.1 mph - N/A   Overcast
9:55 PM 61.0 °F - 36.0 °F 39% 29.79 in 10.0 mi SW 4.6 mph - N/A   Overcast
10:55 PM 59.0 °F - 37.9 °F 46% 29.81 in 10.0 mi WNW 6.9 mph - 0.00 in   Overcast
11:55 PM 57.9 °F - 41.0 °F 53% 29.81 in 10.0 mi West 8.1 mph - 0.00 in   Overcast